Hazen, ND

3:43 AM CST on December 10, 2016 (GMT -0600)
Mercer County Regional

Weather History for KHZE - December, 2012

Change the Weather History Date:

Thursday, December 13, 2012

  Actual Average (KN60) Record (KN60)
Temperature  
Mean Temperature 16 °F -  
Max Temperature 28 °F 27 °F 46 °F (2002)
Min Temperature 5 °F 9 °F -14 °F (2000)
Degree Days  
Heating Degree Days 48    
Moisture  
Dew Point 14 °F    
Average Humidity 86    
Maximum Humidity 100    
Minimum Humidity 78    
Precipitation  
Precipitation 0.18 in - - ()
Sea Level Pressure  
Sea Level Pressure 29.97 in    
Wind  
Wind Speed 7 mph (SE)    
Max Wind Speed 14 mph    
Max Gust Speed -    
Visibility 7 miles    
Events Snow    
Averages and records for this station are not official NWS values.
T = Trace of Precipitation, MM = Missing Value Source: NWS Daily Summary

Daily Weather History Graph

Daily Weather History Graph

Search for Another Location

Airport or City:

Trip Planner

Search our weather history database for the weather conditions in past years. The results will help you decide how hot, cold, wet, or windy it might be!

Date:

Astronomy

Dec. 13, 2012 Rise Set
Actual Time 8:25 AM CST 4:56 PM CST
Civil Twilight 7:49 AM CST 5:31 PM CST
Nautical Twilight 7:10 AM CST 6:10 PM CST
Astronomical Twilight 6:33 AM CST 6:48 PM CST
Moon 8:34 AM CST (12/13) 5:42 PM CST (12/13)
Length of Visible Light 9h 42m
Length of Day
8h 30m
New Moon, 0% of the Moon is Illuminated
Dec 13
New Moon
Dec 19
First Quarter
Dec 28
Full
Jan 4
Last Quarter
Jan 11
New

Hourly Weather History & Observations

Time (CST) Temp. Windchill Dew Point Humidity Pressure Visibility Wind Dir Wind Speed Gust Speed Precip Events Conditions
12:15 AM 14.0 °F 2.0 °F 8.6 °F 79% 29.94 in 3.0 mi NE 9.2 mph - 0.01 in Snow Light Snow
12:35 AM 12.2 °F 0.7 °F 8.6 °F 85% 29.95 in 2.0 mi NE 8.1 mph - 0.06 in Snow Light Snow
12:55 AM 12.2 °F 1.7 °F 8.6 °F 85% 29.95 in 2.5 mi NE 6.9 mph - 0.11 in Snow Light Snow
1:15 AM 12.2 °F 0.7 °F 6.8 °F 79% 29.96 in 3.0 mi NE 8.1 mph - 0.02 in Snow Light Snow
1:35 AM 10.4 °F 0.8 °F 6.8 °F 85% 29.96 in 3.0 mi NE 5.8 mph - 0.04 in Snow Light Snow
1:55 AM 10.4 °F -1.5 °F 6.8 °F 85% 29.97 in 5.0 mi NE 8.1 mph - 0.05 in Snow Light Snow
2:15 AM 10.4 °F -0.4 °F 6.8 °F 85% 29.98 in 4.0 mi NE 6.9 mph - N/A Snow Light Snow
2:35 AM 10.4 °F -1.5 °F 6.8 °F 85% 29.98 in 5.0 mi ENE 8.1 mph - 0.01 in Snow Light Snow
2:55 AM 10.4 °F -0.4 °F 5.0 °F 79% 29.98 in 5.0 mi ENE 6.9 mph - 0.02 in Snow Light Snow
3:15 AM 10.4 °F -1.5 °F 5.0 °F 79% 29.97 in 7.0 mi ENE 8.1 mph - N/A Snow Light Snow
3:35 AM 8.6 °F 0.1 °F 5.0 °F 85% 29.97 in 9.0 mi ENE 4.6 mph - N/A Snow Light Snow
3:55 AM 6.8 °F -3.5 °F 3.2 °F 85% 29.96 in 10.0 mi East 5.8 mph - N/A   Mostly Cloudy
4:15 AM 6.8 °F -0.1 °F 1.4 °F 79% 29.97 in 10.0 mi ENE 3.5 mph - N/A   Mostly Cloudy
4:35 AM 5.0 °F -4.1 °F -0.4 °F 78% 29.99 in 10.0 mi NNE 4.6 mph - N/A   Scattered Clouds
4:55 AM 5.0 °F -4.1 °F -0.4 °F 78% 30.00 in 10.0 mi NNE 4.6 mph - N/A   Mostly Cloudy
5:15 AM 5.0 °F -2.1 °F 1.4 °F 85% 30.01 in 10.0 mi ENE 3.5 mph - N/A   Overcast
5:35 AM 6.8 °F -2.0 °F 1.4 °F 79% 30.01 in 10.0 mi NE 4.6 mph - N/A   Overcast
5:55 AM 8.6 °F 2.0 °F 3.2 °F 79% 30.01 in 10.0 mi East 3.5 mph - N/A   Overcast
6:15 AM 8.6 °F 0.1 °F 5.0 °F 85% 30.01 in 10.0 mi ESE 4.6 mph - N/A   Overcast
6:35 AM 8.6 °F -2.6 °F 5.0 °F 85% 30.01 in 10.0 mi SE 6.9 mph - N/A   Overcast
6:55 AM 10.4 °F 2.2 °F 6.8 °F 85% 30.02 in 10.0 mi SSE 4.6 mph - N/A   Overcast
7:15 AM 12.2 °F 4.3 °F 6.8 °F 79% 30.01 in 7.0 mi SSE 4.6 mph - N/A   Mostly Cloudy
7:35 AM 14.0 °F 8.2 °F 8.6 °F 79% 30.00 in 4.0 mi SE 3.5 mph - N/A Snow Light Snow
7:55 AM 14.0 °F 5.1 °F 8.6 °F 79% 29.99 in 3.0 mi ESE 5.8 mph - N/A Snow Light Snow
8:15 AM 12.2 °F 6.1 °F 8.6 °F 85% 29.99 in 5.0 mi East 3.5 mph - N/A Snow Light Snow
8:35 AM 10.4 °F 2.2 °F 6.8 °F 85% 29.99 in 9.0 mi NE 4.6 mph - N/A   Overcast
8:55 AM 12.2 °F 6.1 °F 8.6 °F 85% 30.01 in 9.0 mi NE 3.5 mph - N/A   Overcast
9:15 AM 14.0 °F 8.2 °F 8.6 °F 79% 30.00 in 9.0 mi NNE 3.5 mph - N/A   Overcast
9:35 AM 15.8 °F 8.6 °F 10.4 °F 79% 30.00 in 10.0 mi ESE 4.6 mph - N/A   Overcast
9:55 AM 15.8 °F 10.2 °F 10.4 °F 79% 30.01 in 10.0 mi East 3.5 mph - N/A   Overcast
10:15 AM 17.6 °F - 12.2 °F 79% 30.01 in 10.0 mi Calm Calm - N/A   Overcast
10:35 AM 19.4 °F 11.5 °F 14.0 °F 80% 30.02 in 10.0 mi South 5.8 mph - N/A   Overcast
10:55 AM 19.4 °F 9.5 °F 15.8 °F 86% 30.03 in 9.0 mi SW 8.1 mph - N/A   Overcast
11:15 AM 19.4 °F 9.5 °F 15.8 °F 86% 30.02 in 8.0 mi South 8.1 mph - N/A   Overcast
11:35 AM 19.4 °F 11.5 °F 15.8 °F 86% 30.02 in 8.0 mi SSE 5.8 mph - N/A   Overcast
11:55 AM 19.4 °F 12.8 °F 15.8 °F 86% 30.00 in 9.0 mi SE 4.6 mph - N/A   Overcast
12:15 PM 21.2 °F 13.6 °F 17.6 °F 86% 30.00 in 9.0 mi South 5.8 mph - N/A   Overcast
12:35 PM 23.0 °F 15.8 °F 17.6 °F 80% 29.99 in 9.0 mi South 5.8 mph - N/A   Overcast
12:55 PM 23.0 °F 14.7 °F 19.4 °F 86% 29.99 in 7.0 mi South 6.9 mph - N/A   Overcast
1:15 PM 24.8 °F 16.1 °F 21.2 °F 86% 29.98 in 7.0 mi South 8.1 mph - N/A   Overcast
1:35 PM 24.8 °F 14.6 °F 21.2 °F 86% 29.97 in 7.0 mi South 10.4 mph - N/A   Overcast
1:55 PM 26.6 °F 15.7 °F 23.0 °F 86% 29.96 in 7.0 mi South 12.7 mph - N/A   Overcast
2:15 PM 26.6 °F 17.5 °F 23.0 °F 86% 29.95 in 8.0 mi SSW 9.2 mph - N/A   Overcast
2:35 PM 28.4 °F 18.5 °F 24.8 °F 86% 29.95 in 10.0 mi SW 11.5 mph - N/A   Overcast
2:55 PM 28.4 °F 19.7 °F 24.8 °F 86% 29.94 in 10.0 mi SSW 9.2 mph - N/A   Overcast
3:15 PM 28.4 °F 18.5 °F 24.8 °F 86% 29.94 in 10.0 mi South 11.5 mph - N/A   Overcast
3:35 PM 28.4 °F 18.5 °F 24.8 °F 86% 29.94 in 10.0 mi South 11.5 mph - N/A   Overcast
3:55 PM 28.4 °F 19.1 °F 24.8 °F 86% 29.94 in 9.0 mi South 10.4 mph - N/A   Overcast
4:15 PM 28.4 °F 17.5 °F 24.8 °F 86% 29.93 in 9.0 mi South 13.8 mph - N/A   Overcast
4:35 PM 28.4 °F 21.2 °F 26.6 °F 93% 29.94 in 8.0 mi South 6.9 mph - N/A   Overcast
7:15 PM 26.6 °F 15.7 °F 24.8 °F 93% 29.94 in 5.0 mi South 12.7 mph - N/A   Overcast
7:35 PM 26.6 °F 17.5 °F 24.8 °F 93% 29.94 in 4.0 mi South 9.2 mph - N/A   Overcast
7:55 PM 24.8 °F 15.3 °F 24.8 °F 100% 29.93 in 7.0 mi SSW 9.2 mph - N/A   Overcast
8:15 PM 24.8 °F 16.1 °F 24.8 °F 100% 29.93 in 4.0 mi SSW 8.1 mph - N/A   Overcast
8:35 PM 24.8 °F 14.6 °F 24.8 °F 100% 29.92 in 5.0 mi South 10.4 mph - N/A   Overcast
8:55 PM 24.8 °F 14.0 °F 24.8 °F 100% 29.92 in 5.0 mi South 11.5 mph - N/A   Overcast
9:15 PM 24.8 °F 14.0 °F 24.8 °F 100% 29.92 in 7.0 mi South 11.5 mph - N/A   Overcast
9:35 PM 24.8 °F 14.0 °F 23.0 °F 93% 29.91 in 8.0 mi SSW 11.5 mph - N/A   Overcast
9:55 PM 24.8 °F 16.1 °F 23.0 °F 93% 29.91 in 5.0 mi South 8.1 mph - N/A   Overcast
10:15 PM 24.8 °F 15.3 °F 23.0 °F 93% 29.91 in 7.0 mi South 9.2 mph - N/A   Overcast
10:35 PM 23.0 °F 13.9 °F 23.0 °F 100% 29.91 in 3.0 mi South 8.1 mph - N/A   Overcast
10:55 PM 23.0 °F 14.7 °F 23.0 °F 100% 29.91 in 4.0 mi SSW 6.9 mph - N/A   Overcast
11:15 PM 23.0 °F 13.1 °F 23.0 °F 100% 29.91 in 4.0 mi South 9.2 mph - N/A   Overcast
11:35 PM 23.0 °F 13.1 °F 21.2 °F 93% 29.91 in 7.0 mi South 9.2 mph - N/A   Overcast
11:55 PM 23.0 °F 12.4 °F 21.2 °F 93% 29.91 in 3.0 mi South 10.4 mph - N/A   Overcast